Lewiston, ID

9:53 PM PST on February 24, 2017 (GMT -0800)
Lewiston-Nez Perce County

Weather History for KLWS - November, 2013

Change the Weather History Date:

Saturday, November 2, 2013

  Actual Average Record
Temperature  
Mean Temperature 50 °F 46 °F  
Max Temperature 59 °F 54 °F 67 °F (1981)
Min Temperature 41 °F 37 °F 10 °F (1935)
Degree Days  
Heating Degree Days 15 19  
Month to date heating degree days 38 38  
Since 1 July heating degree days 606 563  
Cooling Degree Days 0 0  
Month to date cooling degree days 0 0  
Year to date cooling degree days 1178 807  
Moisture  
Dew Point 35 °F    
Average Humidity 64    
Maximum Humidity 93    
Minimum Humidity 35    
Precipitation  
Precipitation 0.10 in 0.03 in 0.80 in (1895)
Month to date precipitation 0.10 0.07  
Year to date precipitation 8.15 10.23  
Snow  
Snow 0.00 in 0.00 in T in (1961)
Month to date snowfall 0.0 0.0  
Since 1 July snowfall 0.0 0.0  
Since 1 September snowfall 0.0 0.0  
Snow Depth 0.00 in    
Sea Level Pressure  
Sea Level Pressure 29.79 in    
Wind  
Wind Speed 6 mph (SSE)    
Max Wind Speed 29 mph    
Max Gust Speed 37 mph    
Visibility 10 miles    
Events Rain    
T = Trace of Precipitation, MM = Missing Value Source: NWS Daily Summary

Daily Weather History Graph

Daily Weather History Graph

Search for Another Location

Airport or City:

Trip Planner

Search our weather history database for the weather conditions in past years. The results will help you decide how hot, cold, wet, or windy it might be!

Date:

Astronomy

Nov. 02, 2013 Rise Set
Actual Time 7:31 AM PDT 5:31 PM PDT
Civil Twilight 6:59 AM PDT 6:02 PM PDT
Nautical Twilight 6:24 AM PDT 6:38 PM PDT
Astronomical Twilight 5:49 AM PDT 7:13 PM PDT
Moon 6:31 AM PDT (11/2) 5:06 PM PDT (11/2)
Length of Visible Light 11h 03m
Length of Day
9h 59m
Waning Crescent, 1% of the Moon is Illuminated
Nov 2
Waning Crescent
Nov 3
New
Nov 9
First Quarter
Nov 17
Full
Nov 25
Last Quarter

Hourly Weather History & Observations

Time (PDT) Temp. Windchill Dew Point Humidity Pressure Visibility Wind Dir Wind Speed Gust Speed Precip Events Conditions
12:56 AM 48.9 °F - 37.9 °F 66% 29.97 in 10.0 mi ESE 5.8 mph - N/A   Partly Cloudy
1:56 AM 50.0 °F - 37.9 °F 63% 29.93 in 10.0 mi East 5.8 mph - N/A   Clear
2:56 AM 50.0 °F - 37.0 °F 61% 29.89 in 10.0 mi ESE 6.9 mph - N/A   Clear
3:56 AM 46.9 °F - 37.9 °F 71% 29.85 in 10.0 mi Calm Calm - N/A   Scattered Clouds
4:56 AM 50.0 °F - 37.9 °F 63% 29.81 in 10.0 mi East 8.1 mph - N/A   Mostly Cloudy
5:56 AM 48.9 °F - 37.0 °F 64% 29.77 in 10.0 mi East 11.5 mph - N/A   Mostly Cloudy
6:56 AM 50.0 °F - 37.0 °F 61% 29.73 in 10.0 mi ESE 3.5 mph - N/A   Mostly Cloudy
7:56 AM 48.9 °F - 37.9 °F 66% 29.71 in 10.0 mi East 6.9 mph - N/A   Overcast
8:56 AM 52.0 °F - 37.9 °F 59% 29.70 in 10.0 mi Calm Calm - N/A   Overcast
9:56 AM 46.0 °F - 42.1 °F 86% 29.74 in 10.0 mi Calm Calm - 0.05 in   Overcast
10:56 AM 46.9 °F - 44.1 °F 90% 29.74 in 9.0 mi WNW 3.5 mph - 0.00 in   Overcast
11:56 AM 46.9 °F - 44.1 °F 90% 29.75 in 5.0 mi SSE 9.2 mph - 0.03 in Rain Light Rain
12:51 PM 46.4 °F 45.2 °F 44.6 °F 93% 29.71 in 7.0 mi NE 3.5 mph - 0.01 in   Overcast
12:56 PM 46.9 °F - 45.0 °F 93% 29.72 in 7.0 mi Calm Calm - 0.01 in   Mostly Cloudy
1:56 PM 52.0 °F - 46.0 °F 80% 29.69 in 10.0 mi Calm Calm - N/A   Mostly Cloudy
2:56 PM 55.0 °F - 42.1 °F 62% 29.69 in 10.0 mi South 6.9 mph - 0.01 in   Partly Cloudy
3:56 PM 59.0 °F - 32.0 °F 36% 29.71 in 10.0 mi West 10.4 mph - N/A   Mostly Cloudy
4:56 PM 53.1 °F - 27.0 °F 37% 29.77 in 10.0 mi WSW 17.3 mph 31.1 mph N/A   Scattered Clouds
5:56 PM 52.0 °F - 24.1 °F 34% 29.78 in 10.0 mi WSW 17.3 mph 26.5 mph N/A   Clear
6:56 PM 46.9 °F - 26.1 °F 44% 29.81 in 10.0 mi West 5.8 mph - N/A   Partly Cloudy
7:56 PM 48.0 °F - 24.1 °F 39% 29.82 in 10.0 mi South 5.8 mph 16.1 mph N/A   Scattered Clouds
8:56 PM 45.0 °F 39.7 °F 27.0 °F 49% 29.83 in 10.0 mi SW 10.4 mph - N/A   Clear
9:56 PM 43.0 °F 38.8 °F 25.0 °F 49% 29.85 in 10.0 mi SSW 6.9 mph - N/A   Clear
10:56 PM 43.0 °F 41.3 °F 25.0 °F 49% 29.87 in 10.0 mi South 3.5 mph - N/A   Partly Cloudy
11:56 PM 42.1 °F 39.2 °F 24.1 °F 49% 29.87 in 10.0 mi SW 4.6 mph - N/A   Partly Cloudy